Location: Ballingbuur
(53.0000°N, 5.7667°E)
Time: 20:54:01
(UTC+00:00)

Genesis I - Pass Details

Date: 29 November 2020
Orbit: 493 x 528 km, 64.5° (Epoch: 24 January)

Event Time Altitude Azimuth Distance (km) Brightness Sun altitude
Exits shadow 05:25:20 - 213° (SSW) 2,048 6.0 -17.1°
Reaches altitude 10° 05:26:12 10° 211° (SSW) 1,701 5.6 -16.9°
Maximum altitude 05:29:57 64° 130° (SE) 562 3.5 -16.4°
Drops below altitude 10° 05:33:48 10° 49° (NE) 1,732 6.3 -15.8°
Sets 05:36:00 0° 46° (NE) 2,628 7.2 -15.5°
